Location: Erlenbrunn
(49.1717°N, 7.6142°E)
Time: 04:37:26
(UTC+00:00)

YAOGAN 6 - Pass Details

Date: 25 November 2020
Orbit: 466 x 502 km, 97.0° (Epoch: 24 January)

Event Time Altitude Azimuth Distance (km) Brightness Sun altitude
Rises 16:06:23 0° 152° (SSE) 2,578 6.2 -4.9°
Reaches altitude 10° 16:08:31 10° 146° (SE) 1,696 5.2 -5.2°
Maximum altitude 16:12:01 46° 72° (ENE) 672 2.9 -5.7°
Drops below altitude 10° 16:15:31 10° 359° (N) 1,692 5.1 -6.3°
Sets 16:17:38 0° 353° (N) 2,572 6.1 -6.6°
